CW1575 Weather Reports


Display with metric or nautical units.
time (UTC)temp
F
wind
direction
speed
MPH
gust
MPH
rain 1hr
in
rain 24hr
in
rain mn
in
humidity
%
barometer
mb
20260508134004 44 0 1.0 3.0 0.00 0.36 0.00 90 1010.2
20260508133504 44 0 1.0 3.0 0.00 0.36 0.00 91 1010.2
20260508133004 44 0 0.0 3.0 0.00 0.36 0.00 91 1010.3
20260508132503 43 0 0.0 1.0 0.00 0.36 0.00 91 1010.4
20260508131504 43 0 0.0 0.0 0.00 0.36 0.00 91 1010.4
20260508131004 43 0 0.0 0.0 0.00 0.36 0.00 91 1010.5
20260508130503 43 0 0.0 0.0 0.00 0.36 0.00 90 1010.5
20260508125504 42 0 0.0 0.0 0.00 0.36 0.00 90 1010.3
20260508124504 42 0 0.0 3.0 0.00 0.36 0.00 90 1010.5
20260508124004 42 0 1.0 3.0 0.00 0.36 0.00 90 1010.5
20260508123503 42 0 2.0 8.0 0.00 0.36 0.00 90 1010.5
20260508122503 42 0 0.0 1.0 0.00 0.36 0.00 89 1010.3
20260508122003 41 0 0.0 0.0 0.00 0.36 0.00 89 1010.1
20260508121503 41 0 0.0 1.0 0.00 0.36 0.00 89 1010.0
20260508121004 41 0 0.0 1.0 0.00 0.36 0.00 88 1009.6
20260508120503 41 0 0.0 3.0 0.00 0.36 0.00 87 1009.3
20260508120005 41 0 0.0 1.0 0.00 0.36 0.00 87 1009.2
20260508115504 41 0 0.0 1.0 0.00 0.36 0.00 87 1009.5
20260508115005 41 0 0.0 0.0 0.00 0.36 0.00 87 1009.4
20260508114005 41 0 0.0 0.0 0.00 0.36 0.00 87 1009.2
20260508113505 42 0 0.0 0.0 0.00 0.36 0.00 87 1009.2
20260508113005 42 0 0.0 0.0 0.00 0.36 0.00 87 1009.2
20260508112505 42 0 0.0 0.0 0.00 0.36 0.00 87 1009.0
20260508112005 42 0 0.0 0.0 0.00 0.36 0.00 87 1009.0
20260508111504 42 0 0.0 2.0 0.00 0.36 0.00 87 1009.0
20260508111005 42 0 0.0 3.0 0.00 0.36 0.00 86 1008.9
20260508110505 42 0 1.0 3.0 0.00 0.36 0.00 86 1008.9
20260508110005 42 0 0.0 0.0 0.00 0.36 0.00 86 1008.8
20260508105005 42 0 1.0 2.0 0.00 0.36 0.00 85 1008.7
20260508104005 42 0 0.0 1.0 0.00 0.36 0.00 84 1008.6
20260508103505 42 0 0.0 2.0 0.00 0.36 0.00 84 1008.5
20260508103005 43 0 1.0 2.0 0.00 0.36 0.00 84 1008.3
20260508102505 43 0 0.0 0.0 0.00 0.36 0.00 84 1008.0
20260508102005 43 0 0.0 0.0 0.00 0.36 0.00 84 1007.9
20260508101004 43 0 0.0 0.0 0.00 0.36 0.00 83 1008.0
20260508100504 43 0 0.0 0.0 0.00 0.36 0.00 83 1008.0
20260508100005 44 0 0.0 0.0 0.00 0.36 0.00 83 1008.1
20260508095505 44 0 0.0 0.0 0.00 0.36 0.00 82 1008.2
20260508095005 44 0 0.0 0.0 0.00 0.36 0.00 82 1008.1
20260508094504 44 0 0.0 0.0 0.00 0.36 0.00 82 1008.1
20260508094005 44 0 0.0 0.0 0.00 0.36 0.00 82 1008.1
20260508093504 45 0 0.0 0.0 0.00 0.36 0.00 81 1008.1
20260508093005 45 0 0.0 0.0 0.00 0.36 0.00 81 1008.2
20260508092505 45 0 0.0 0.0 0.00 0.36 0.00 81 1008.3
20260508092005 45 0 0.0 0.0 0.00 0.36 0.00 80 1008.3
20260508091505 45 0 0.0 0.0 0.00 0.36 0.00 80 1008.3
20260508091005 45 0 0.0 0.0 0.00 0.36 0.00 80 1008.5
20260508090505 45 0 0.0 0.0 0.00 0.36 0.00 79 1008.5
20260508090005 46 0 0.0 1.0 0.00 0.36 0.00 79 1008.5
20260508085005 46 0 0.0 1.0 0.00 0.36 0.00 78 1008.6
20260508084505 46 0 0.0 1.0 0.00 0.36 0.00 78 1008.6
20260508083505 46 0 0.0 0.0 0.00 0.36 0.00 77 1008.8
20260508083005 46 0 0.0 0.0 0.00 0.36 0.00 77 1008.8
20260508082504 46 0 0.0 2.0 0.00 0.36 0.00 77 1008.9
20260508082005 46 0 0.0 1.0 0.00 0.36 0.00 77 1008.9
20260508081504 47 0 0.0 2.0 0.00 0.36 0.00 77 1008.9
20260508081004 47 0 0.0 1.0 0.00 0.36 0.00 77 1009.1
20260508080505 47 0 0.0 2.0 0.00 0.36 0.00 76 1009.3
20260508080004 47 0 0.0 1.0 0.00 0.36 0.00 75 1009.4
20260508075505 47 0 1.0 2.0 0.00 0.36 0.00 74 1009.5
20260508075004 47 0 0.0 1.0 0.00 0.36 0.00 73 1009.4
20260508074504 48 0 0.0 2.0 0.00 0.36 0.00 73 1009.5
20260508074006 48 0 0.0 1.0 0.00 0.36 0.00 72 1009.5
20260508073504 48 0 0.0 0.0 0.00 0.36 0.00 72 1009.5
20260508073005 48 0 1.0 2.0 0.00 0.36 0.00 72 1009.4
20260508072505 49 0 0.0 1.0 0.00 0.36 0.00 71 1009.3
20260508072005 49 0 0.0 0.0 0.00 0.36 0.00 71 1009.3
20260508071504 50 0 0.0 0.0 0.00 0.36 0.00 69 1009.3
20260508071005 50 0 0.0 0.0 0.00 0.36 0.00 68 1009.3
20260508070505 50 0 0.0 1.0 0.00 0.36 0.00 67 1009.2
20260508070005 51 0 0.0 0.0 0.00 0.36 0.00 67 1009.2
20260508065504 51 0 0.0 0.0 0.00 0.36 0.00 66 1009.3
20260508065004 51 0 0.0 0.0 0.00 0.36 0.00 66 1009.4
20260508064504 51 0 0.0 0.0 0.00 0.36 0.00 65 1009.3
20260508064005 52 0 0.0 0.0 0.00 0.37 0.00 65 1009.4
20260508063504 52 0 0.0 0.0 0.00 0.37 0.00 64 1009.2
20260508063005 52 0 0.0 0.0 0.00 0.37 0.00 64 1009.3
20260508062505 52 0 0.0 0.0 0.00 0.37 0.00 64 1009.1
20260508062005 52 0 0.0 1.0 0.00 0.37 0.00 64 1009.2
20260508061505 52 0 1.0 5.0 0.00 0.37 0.00 64 1009.2
20260508060005 53 0 1.0 3.0 0.00 0.37 0.00 63 1010.0
20260508055504 53 0 2.0 6.0 0.00 0.37 0.37 63 1010.0
20260508055005 53 0 3.0 12.0 0.00 0.37 0.37 63 1010.4
20260508054504 53 0 2.0 6.0 0.00 0.37 0.37 63 1010.2
20260508053504 54 0 0.0 1.0 0.00 0.37 0.37 61 1009.2
20260508052505 54 0 0.0 0.0 0.00 0.37 0.37 59 1009.0
20260508052005 54 0 0.0 1.0 0.00 0.37 0.37 59 1009.2
20260508051504 55 0 0.0 0.0 0.00 0.37 0.37 58 1009.0
20260508050505 55 0 0.0 1.0 0.00 0.37 0.37 58 1009.1
20260508050004 55 0 0.0 1.0 0.00 0.37 0.37 57 1009.1
20260508045505 55 0 0.0 1.0 0.00 0.37 0.37 57 1009.1
20260508045005 55 0 0.0 1.0 0.00 0.37 0.37 57 1009.0
20260508044504 55 0 0.0 1.0 0.00 0.37 0.37 56 1009.2
20260508044004 55 0 1.0 9.0 0.00 0.37 0.37 56 1009.4
20260508043505 56 0 1.0 6.0 0.00 0.37 0.37 56 1009.4
20260508043004 56 0 3.0 12.0 0.00 0.37 0.37 54 1009.8
20260508042005 56 0 5.0 10.0 0.00 0.37 0.37 52 1009.7
20260508041004 56 0 4.0 10.0 0.00 0.37 0.37 51 1009.0
20260508040005 57 0 1.0 2.0 0.00 0.37 0.37 49 1009.1
20260508035505 57 0 0.0 1.0 0.00 0.37 0.37 49 1009.0
20260508035004 57 0 0.0 1.0 0.00 0.37 0.37 48 1009.0
20260508034504 57 0 0.0 1.0 0.00 0.37 0.37 48 1009.0
20260508034004 57 0 0.0 2.0 0.00 0.37 0.37 47 1009.0
20260508033504 58 0 1.0 2.0 0.00 0.37 0.37 47 1009.0
20260508033005 58 0 1.0 3.0 0.00 0.37 0.37 47 1008.9
20260508032504 58 0 3.0 6.0 0.00 0.37 0.37 46 1008.9
20260508032004 58 0 2.0 3.0 0.00 0.38 0.37 46 1009.0
20260508031504 58 0 0.0 1.0 0.00 0.38 0.37 46 1009.0
20260508031005 59 0 1.0 3.0 0.00 0.38 0.37 45 1009.0
20260508030505 59 0 2.0 6.0 0.00 0.38 0.37 45 1009.0
20260508030005 59 0 1.0 8.0 0.00 0.38 0.37 44 1009.0
20260508024505 60 0 0.0 2.0 0.00 0.38 0.37 43 1009.0
20260508024004 60 0 0.0 2.0 0.00 0.38 0.37 42 1009.1
20260508023504 60 0 1.0 3.0 0.00 0.38 0.37 42 1009.1
20260508023004 61 0 1.0 3.0 0.00 0.38 0.37 41 1009.2
20260508022505 61 0 1.0 2.0 0.00 0.38 0.37 41 1009.2
20260508022004 61 0 1.0 3.0 0.00 0.38 0.37 41 1009.2
20260508021504 61 0 1.0 3.0 0.00 0.38 0.37 40 1009.3
20260508021005 62 0 5.0 12.0 0.00 0.38 0.37 39 1009.2
20260508020004 62 0 5.0 10.0 0.00 0.38 0.37 38 1009.0
20260508015505 62 0 3.0 9.0 0.00 0.38 0.37 36 1009.0
20260508015004 63 0 2.0 6.0 0.00 0.38 0.37 36 1008.9
20260508014005 63 0 1.0 6.0 0.00 0.38 0.37 37 1008.4
20260508013505 63 0 2.0 12.0 0.00 0.38 0.37 36 1008.2
20260508013004 64 0 2.0 6.0 0.00 0.39 0.37 37 1008.3
20260508012504 64 0 0.0 1.0 0.00 0.39 0.37 38 1008.2
20260508012004 64 0 0.0 0.0 0.00 0.39 0.37 37 1008.0
20260508011504 64 0 0.0 0.0 0.00 0.39 0.37 37 1008.0
20260508011004 65 0 0.0 0.0 0.00 0.39 0.37 32 1007.8
20260508010005 65 0 0.0 1.0 0.00 0.39 0.37 33 1007.8
20260508005504 65 0 0.0 1.0 0.00 0.39 0.37 32 1007.8
20260508005005 65 0 0.0 0.0 0.00 0.40 0.37 32 1007.7
20260508004504 66 0 0.0 0.0 0.00 0.40 0.37 32 1007.7
20260508004005 66 0 0.0 1.0 0.00 0.40 0.37 31 1007.7
20260508003504 66 0 0.0 0.0 0.00 0.40 0.37 31 1007.6
20260508003005 66 0 0.0 0.0 0.00 0.40 0.37 32 1007.6
20260508002504 67 0 0.0 0.0 0.00 0.40 0.37 29 1007.7
20260508002004 67 0 0.0 1.0 0.00 0.40 0.37 29 1007.8
20260508001504 67 0 0.0 1.0 0.00 0.40 0.37 30 1007.9
20260508000004 67 0 1.0 2.0 0.00 0.41 0.37 29 1008.0
20260507235504 67 0 0.0 2.0 0.00 0.41 0.37 29 1008.0
20260507235005 68 0 0.0 3.0 0.00 0.41 0.37 28 1008.0
20260507234504 68 0 1.0 2.0 0.00 0.42 0.37 28 1008.0
20260507234005 68 0 0.0 2.0 0.00 0.42 0.37 29 1008.1
20260507233504 68 0 0.0 2.0 0.00 0.42 0.37 29 1008.1
20260507233004 68 0 0.0 2.0 0.00 0.42 0.37 28 1008.2
20260507232504 69 0 0.0 2.0 0.00 0.42 0.37 29 1008.3
20260507232004 69 0 1.0 2.0 0.00 0.42 0.37 28 1008.4
20260507231504 69 0 0.0 3.0 0.00 0.42 0.37 27 1008.5
20260507231004 70 0 1.0 3.0 0.00 0.43 0.37 27 1008.7
20260507230504 70 0 0.0 3.0 0.00 0.43 0.37 27 1008.8
20260507230005 70 0 2.0 3.0 0.00 0.43 0.37 26 1009.0
20260507225504 71 0 2.0 5.0 0.00 0.43 0.37 26 1009.0
20260507225004 71 0 1.0 3.0 0.00 0.44 0.37 28 1008.9
20260507224504 71 0 4.0 8.0 0.00 0.44 0.37 28 1008.9
20260507224005 71 0 3.0 6.0 0.00 0.44 0.37 27 1008.9
20260507223504 71 0 2.0 6.0 0.00 0.44 0.37 26 1009.0
20260507223004 71 0 3.0 6.0 0.00 0.44 0.37 26 1008.9
20260507222504 71 0 4.0 12.0 0.00 0.44 0.37 28 1009.1
20260507221503 71 0 1.0 3.0 0.00 0.45 0.37 26 1009.2
20260507221004 71 0 1.0 8.0 0.00 0.45 0.37 28 1009.4
20260507220004 70 0 5.0 12.0 0.00 0.46 0.37 28 1009.7
20260507215504 70 0 5.0 12.0 0.00 0.46 0.37 27 1009.9
20260507215004 70 0 2.0 6.0 0.00 0.46 0.37 28 1010.0
20260507214504 69 0 3.0 8.0 0.00 0.46 0.37 28 1010.2
20260507214004 69 0 6.0 13.0 0.00 0.46 0.37 29 1010.2
20260507213504 68 0 3.0 10.0 0.00 0.47 0.37 30 1010.4
20260507213004 67 0 3.0 8.0 0.00 0.47 0.37 31 1010.4
20260507212504 66 0 5.0 9.0 0.00 0.47 0.37 30 1010.6
20260507212004 66 0 3.0 12.0 0.00 0.47 0.37 31 1010.7
20260507211004 65 0 3.0 12.0 0.00 0.47 0.37 32 1011.0
20260507210504 65 0 1.0 3.0 0.00 0.47 0.37 33 1011.2
20260507210005 65 0 2.0 5.0 0.00 0.47 0.37 32 1011.3
20260507205504 65 0 3.0 5.0 0.00 0.47 0.37 31 1011.4
20260507205004 65 0 2.0 12.0 0.00 0.47 0.37 31 1011.4
20260507204504 65 0 3.0 12.0 0.00 0.47 0.37 31 1011.5
20260507204004 66 0 2.0 9.0 0.00 0.47 0.37 31 1011.6
20260507203504 66 0 1.0 6.0 0.00 0.48 0.37 31 1011.8
20260507203004 66 0 2.0 9.0 0.00 0.48 0.37 30 1011.8
20260507202504 67 0 1.0 5.0 0.00 0.48 0.37 31 1011.8
20260507202005 67 0 2.0 3.0 0.00 0.48 0.37 31 1011.8
20260507201504 67 0 1.0 5.0 0.00 0.48 0.37 29 1011.9
20260507201004 68 0 2.0 8.0 0.00 0.48 0.37 31 1012.0
20260507200504 68 0 2.0 10.0 0.00 0.48 0.37 29 1012.3
20260507200004 68 0 2.0 6.0 0.00 0.48 0.37 32 1012.2
20260507195504 68 0 5.0 10.0 0.00 0.48 0.37 33 1012.3
20260507195004 67 0 4.0 12.0 0.00 0.48 0.37 32 1012.4
20260507194504 67 0 2.0 8.0 0.00 0.48 0.37 35 1012.6
20260507194004 66 0 3.0 10.0 0.00 0.48 0.37 35 1012.7
20260507193504 66 0 3.0 12.0 0.00 0.48 0.37 32 1012.9
20260507193004 66 0 3.0 10.0 0.00 0.48 0.37 33 1012.9
20260507192504 66 0 6.0 12.0 0.00 0.48 0.37 36 1013.2
20260507192004 65 0 4.0 9.0 0.00 0.48 0.37 33 1013.2
20260507191504 65 0 2.0 9.0 0.00 0.48 0.37 35 1013.4
20260507191004 65 0 1.0 3.0 0.00 0.48 0.37 39 1013.5
20260507190504 65 0 1.0 3.0 0.00 0.48 0.37 36 1013.7
20260507190005 64 0 1.0 3.0 0.00 0.48 0.37 38 1013.7
20260507185504 64 0 2.0 3.0 0.00 0.48 0.37 37 1013.7
20260507184504 64 0 2.0 6.0 0.00 0.48 0.37 38 1013.8
20260507184004 64 0 2.0 5.0 0.00 0.48 0.37 37 1013.7
20260507183004 64 0 3.0 8.0 0.00 0.48 0.37 38 1013.9
20260507182504 64 0 2.0 8.0 0.00 0.48 0.37 39 1013.9
20260507181504 64 0 3.0 6.0 0.00 0.48 0.37 40 1014.0
20260507181003 64 0 2.0 5.0 0.00 0.49 0.37 38 1014.2
20260507180504 64 0 2.0 3.0 0.00 0.49 0.37 37 1014.4
20260507180004 64 0 1.0 3.0 0.00 0.49 0.37 42 1014.5
20260507175004 64 0 1.0 3.0 0.00 0.49 0.37 39 1014.5
20260507174504 64 0 0.0 2.0 0.00 0.49 0.37 37 1014.6
20260507174004 64 0 2.0 3.0 0.00 0.49 0.37 38 1014.7
20260507173504 63 0 1.0 3.0 0.00 0.49 0.37 45 1014.9
20260507172504 62 0 0.0 5.0 0.00 0.49 0.37 41 1015.0
20260507172004 62 0 2.0 6.0 0.00 0.49 0.37 45 1015.0
20260507171504 61 0 2.0 3.0 0.00 0.49 0.37 44 1015.0
20260507171004 61 0 1.0 5.0 0.00 0.49 0.37 43 1015.1
20260507170504 61 0 3.0 3.0 0.00 0.49 0.37 41 1015.2
20260507170004 61 0 2.0 5.0 0.00 0.49 0.37 44 1015.2
20260507165504 61 0 2.0 3.0 0.00 0.49 0.37 45 1015.3
20260507165004 61 0 1.0 3.0 0.00 0.49 0.37 44 1015.3
20260507164504 61 0 1.0 3.0 0.00 0.49 0.37 43 1015.4
20260507164003 60 0 1.0 3.0 0.00 0.49 0.37 43 1015.5
20260507163504 60 0 1.0 5.0 0.00 0.49 0.37 43 1015.5
20260507163004 60 0 3.0 6.0 0.00 0.49 0.37 43 1015.6
20260507162504 60 0 3.0 6.0 0.01 0.49 0.37 44 1015.7
20260507162004 59 0 1.0 6.0 0.01 0.49 0.37 44 1015.8
20260507161504 59 0 0.0 2.0 0.02 0.49 0.37 45 1015.9
20260507161004 59 0 1.0 3.0 0.02 0.49 0.37 46 1016.0
20260507160503 59 0 1.0 5.0 0.03 0.49 0.37 46 1016.3
20260507160004 58 0 2.0 3.0 0.03 0.49 0.37 45 1016.4
20260507155504 58 0 1.0 5.0 0.04 0.49 0.37 46 1016.5
20260507155004 57 0 1.0 3.0 0.04 0.49 0.37 47 1016.6
20260507154505 57 0 0.0 3.0 0.05 0.49 0.37 50 1016.7
20260507154004 56 0 1.0 6.0 0.05 0.49 0.37 51 1016.8
20260507153504 55 0 0.0 5.0 0.06 0.49 0.37 50 1016.9
20260507153004 55 0 1.0 8.0 0.07 0.49 0.37 49 1016.9
20260507152504 54 0 2.0 5.0 0.07 0.48 0.36 51 1016.9
20260507152003 54 0 2.0 5.0 0.07 0.48 0.36 52 1016.9
20260507151504 53 0 2.0 5.0 0.07 0.47 0.35 52 1016.9
20260507151003 53 0 2.0 5.0 0.12 0.47 0.35 54 1017.0
20260507150005 51 0 3.0 6.0 0.33 0.46 0.34 54 1017.1
20260507145503 50 0 2.0 3.0 0.32 0.45 0.33 57 1017.2
20260507145004 50 0 1.0 5.0 0.32 0.45 0.33 60 1017.2
20260507144004 47 0 2.0 5.0 0.31 0.44 0.32 65 1017.3
20260507143504 46 0 2.0 3.0 0.30 0.43 0.31 67 1017.3
20260507143004 45 0 3.0 5.0 0.29 0.42 0.30 70 1017.3
20260507142503 44 0 1.0 3.0 0.28 0.41 0.29 74 1017.3
20260507142004 43 0 2.0 3.0 0.28 0.41 0.29 75 1017.3
20260507141504 42 0 1.0 3.0 0.27 0.40 0.28 76 1017.3
20260507141003 41 0 0.0 1.0 0.22 0.35 0.23 74 1017.3
20260507140504 40 0 2.0 5.0 0.00 0.13 0.01 74 1017.3
20260507140005 39 0 1.0 3.0 0.00 0.13 0.01 78 1017.4
20260507135504 38 0 1.0 3.0 0.00 0.13 0.01 79 1017.5
20260507135004 37 0 1.0 3.0 0.00 0.13 0.01 81 1017.5
20260507134504 37 0 0.0 0.0 0.00 0.13 0.01 83 1017.6